Location: Bessat
(45.8735°N, 1.9924°E)
Time: 08:24:50
(UTC+00:00)

Cosmos 1867 - Pass Details

Date: 11 May 2021
Orbit: 773 x 802 km, 65.0° (Epoch: 20 June)

Event Time Altitude Azimuth Distance (km) Brightness Sun altitude
Exits shadow 23:25:59 58° 103° (ESE) 921 3.7 -25.8°
Drops below altitude 10° 23:31:02 10° 42° (NE) 2,379 6.6 -25.9°
Sets 23:33:30 0° 39° (NE) 3,315 7.5 -25.9°
